Location: Newark
(49.2191°N, 12.6671°E)
Time: 21:59:01
(UTC+00:00)

Transit 4A - Pass Details

Date: 28 January 2020
Orbit: 872 x 973 km, 66.8° (Epoch: 20 February)

Event Time Altitude Azimuth Distance (km) Brightness Sun altitude
Rises 13:44:51 0° 322° (NW) 3,473 10.7 15.5°
Reaches altitude 10° 13:47:21 10° 320° (NW) 2,530 10.1 15.2°
Maximum altitude 13:53:08 68° 239° (WSW) 944 8.6 14.7°
Drops below altitude 10° 13:58:56 10° 158° (SSE) 2,537 10.7 14.1°
Sets 14:01:26 0° 156° (SSE) 3,483 11.3 13.9°
